Vorticity
nan nan nan nan nan nan nan nan nan nan nan nan nan nan nan nan nan nan nan nan nan nan
nan 8 8 8 9 7 7 7 7 8 8 8 9 9 10 9 8 8 9 10 9 nan
nan 9 9 10 9 8 8 7 8 9 9 9 9 9 10 8 8 8 8 9 9 nan
nan 10 10 10 9 9 9 9 9 9 9 10 9 9 9 7 9 9 6 7 9 nan
nan 10 10 9 8 9 10 10 10 9 9 10 10 10 9 9 10 9 9 8 8 nan
nan 10 9 9 10 10 10 10 11 11 10 9 10 10 10 10 9 9 10 10 9 nan
nan 9 10 10 10 10 10 11 11 11 11 10 10 13 11 11 11 10 10 10 10 nan
nan 9 9 10 10 11 11 11 11 11 11 12 13 7 6 9 12 11 10 10 10 nan
nan 9 9 10 10 11 12 11 11 12 11 12 10 3 5 7 13 12 11 9 10 nan
nan 9 9 9 10 11 11 12 13 12 11 11 8 8 10 10 12 12 11 10 9 nan
nan 10 10 10 9 11 12 13 13 11 12 11 9 8 9 14 15 13 12 13 11 nan
nan 10 11 10 10 12 12 11 12 12 11 9 8 10 9 15 18 13 15 15 14 nan
nan 11 11 10 12 13 10 11 11 10 12 11 10 13 11 12 16 13 15 15 18 nan
nan nan nan nan nan nan nan nan nan nan nan nan nan nan nan nan nan nan nan nan nan nan
CAPE
0 0 0 0 0 0 0 0 0 0 0 0 0 0 0 0 1 1 6 7 10 6
0 0 0 1 1 0 0 0 0 1 1 0 0 0 0 0 0 1 1 2 5 11
0 0 0 1 2 4 2 1 1 2 3 3 1 0 0 0 0 0 1 2 2 6
0 1 1 2 2 2 5 7 2 2 4 4 4 1 0 0 0 0 0 0 0 0
1 1 2 2 2 3 3 5 6 6 3 4 4 5 2 1 1 0 0 0 0 0
1 2 2 2 3 3 4 4 4 6 11 5 5 7 5 4 3 2 0 0 0 0
2 2 4 4 4 6 5 6 5 6 7 10 6 7 7 6 6 5 3 8 7 1
1 3 4 5 5 6 6 8 7 13 11 12 11 9 6 10 11 9 8 13 7 13
1 2 4 5 6 6 6 6 8 8 15 12 18 15 21 27 29 35 34 17 9 11
8 11 6 5 5 6 6 7 7 10 16 15 19 19 25 27 21 29 33 34 18 9
1 5 11 13 4 4 8 13 26 22 12 18 14 20 28 24 25 39 37 37 31 10
3 3 6 5 6 15 24 20 21 21 14 20 15 20 27 30 34 48 52 45 44 33
4 3 3 7 6 14 28 25 22 14 11 11 24 11 27 33 39 54 72 58 39 42
3 4 5 6 10 14 16 17 18 14 18 16 19 25 27 33 35 46 63 71 60 43